Regional Weather Roundup
Issued by NWS

Home | Current Version | Previous Version | Text Only | Print | Product List | Glossary Off
Versions: 1 2 3 4 5 6 7 8 9 10 11 12 13 14 15 16 17 18 19 20 21 22 23 24 25 26 27 28 29 30 31 32 33 34 35 36 37 38 39 40 41 42 43 44 45 46 47 48 49 50

000
ASUS43 KDMX 300908
RWRIA

WEATHER ROUNDUP FOR IOWA
NATIONAL WEATHER SERVICE DES MOINES IA
400 AM CDT SAT APR 30 2016

NOTE: "FAIR" INDICATES FEW OR NO CLOUDS BELOW 12,000 FEET WITH NO
SIGNIFICANT WEATHER AND/OR OBSTRUCTIONS TO VISIBILITY.

* - THESE STATIONS ARE NOT NWS STATIONS...THUS NOT UNDER NWS
QUALITY CONTROL.  THEY ALSO DO NOT REPORT WEATHER SUCH
AS PRECIPITATION OR FOG.

IAZ001>003-012>014-020>022-031>034-043>046-301000-
   NORTHWEST IOWA

CITY           SKY/WX    TMP DP  RH WIND       PRES   REMARKS
CARROLL *      CLOUDY    45  41  87 E22       29.88F
CHEROKEE *     CLOUDY    45  41  87 NE13G22   29.92F
DENISON *      CLOUDY    43  41  93 E21G31    29.84F
LE MARS *      CLOUDY    45  41  87 NE14G20   29.91F
ORANGE CITY *  MOCLDY    45  39  81 E14G23    29.91F
SHELDON *      CLOUDY    45  41  87 E20       29.93F
SIOUX CITY     LGT RAIN  46  40  79 E14       29.87F
SPENCER        CLOUDY    45  39  79 NE15      29.96F
STORM LAKE *   MIX PCPN  43  41  93 E25G31    29.90F
$$

IAZ055>058-069>071-079>083-090>094-301000-
   SOUTHWEST IOWA

CITY           SKY/WX    TMP DP  RH WIND       PRES   REMARKS
ATLANTIC *     RAIN      45  43  93 E16G26    29.81F
AUDUBON *      LGT RAIN  45  41  87 NE18G25   29.85F
CLARINDA *       N/A    N/A N/A N/A MISG        N/A
COUNCIL BLFS * LGT RAIN  45  45 100 E23G33    29.77F
CRESTON *      LGT RAIN  45  45 100 E24G31    29.81F
HARLAN  *      LGT RAIN  45  43  93 E23G31    29.85F
LAMONI         CLOUDY    46  45  96 E15G24    29.81F
RED OAK *      CLOUDY    46  45  93 E18G24    29.77F
SHENANDOAH *   LGT RAIN  46  46 100 E22G29    29.74F
$$

IAZ047>049-059>061-072>074-084-301000-
   CENTRAL IOWA

CITY           SKY/WX    TMP DP  RH WIND       PRES   REMARKS
AMES           CLOUDY    45  41  86 E13       29.92F
ANKENY *       CLOUDY    45  45 100 E14G21    29.91S FOG
BOONE *        CLOUDY    43  41  93 E18G28    29.90S
CHARITON *     LGT RAIN  45  45 100 E18G26    29.85S
DES MOINES     LGT RAIN  46  41  82 E18G24    29.89F
GRINNELL*      LGT RAIN  45  41  87 E17       29.93F
KNOXVILLE *    LGT RAIN  45  43  93 E20G28    29.86F
MARSHALLTOWN   LGT RAIN  45  40  82 E22       29.93F
NEWTON *       CLOUDY    45  45 100 E18G26    29.92S FOG
PELLA *        LGT RAIN  45  43  93 E12G20    29.91F
$$

IAZ004>006-015-016-023>025-035-036-301000-
   NORTH CENTRAL IOWA

CITY           SKY/WX    TMP DP  RH WIND       PRES   REMARKS
ALGONA *       CLOUDY    45  41  87 NE14      29.98F
CLARION *      CLOUDY    45  41  87 E15G21    29.97F
ESTHERVILLE    CLOUDY    43  40  89 NE16      29.98F
FORT DODGE *   CLOUDY    45  37  76 E16       29.94F
MASON CITY     CLOUDY    44  40  85 NE12      30.01F
FOREST CITY *  CLEAR     45  37  76 NE10      30.00F
WEBSTER CITY * MOCLDY    45  41  87 E20       29.92F
IOWA FALLS *   MOCLDY    45  41  87 E16       29.96F
$$

IAZ007>011-017>019-026>030-037>042-050>054-066-301000-
   NORTHEAST IOWA

CITY           SKY/WX    TMP DP  RH WIND       PRES   REMARKS
CEDAR RAPIDS   LGT RAIN  45  42  89 E17       29.97S
CHARLES CITY * CLOUDY    45  43  93 E10       30.01F
CLINTON *      CLOUDY    45  41  86 E17       30.02R
DECORAH *        N/A     43  39  87 E8        30.03R
DUBUQUE        CLOUDY    43  39  86 NE8       30.02F
MONTICELLO *   CLEAR     45  41  87 E12G17    30.00F
OELWEIN *      MIX PCPN  43  43 100 E12       30.01F
WATERLOO       CLOUDY    44  40  85 E12       29.99F
$$

IAZ064-065-067-068-078-301000-
   EAST CENTRAL IOWA

CITY           SKY/WX    TMP DP  RH WIND       PRES   REMARKS
DAVENPORT      CLOUDY    45  40  82 E13       30.00R
IOWA CITY      LGT RAIN  46  42  86 E9        29.98F
MT. PLEASANT * DRIZZLE   48  48 100 E14G20    29.95R
MUSCATINE *    CLOUDY    48  43  81 E10       29.98S
QUAD CITIES    CLOUDY    46  41  82 E15       29.99S
$$

IAZ062-063-075>077-085>089-095>099-301000-
   SOUTHEAST IOWA

CITY           SKY/WX    TMP DP  RH WIND       PRES   REMARKS
BURLINGTON     LGT RAIN  47  45  93 E13       29.93F FOG
FAIRFIELD *    LGT RAIN  45  43  93 E17       29.93F
FORT MADISON * LGT RAIN  46  45  93 E16G22    29.92F
KEOKUK *       CLOUDY    48  46  93 E15G25    29.89F FOG
OSKALOOSA *    LGT RAIN  45  43  93 E18       29.92F
OTTUMWA        LGT RAIN  45  44  97 E18       29.91F FOG
WASHINGTON *   CLOUDY    45  45 100 E13       29.96S FOG
$$

ABBREVIATIONS USED IN REMARKS
   TC - TEMPERATURES IN CELSIUS
  WCI - WIND CHILL INDEX
   HX - HEAT INDEX
  VSB - VISIBILITY
$$





USA.gov is the U.S. government's official web portal to all federal, state and local government web resources and services.